Date String (YYYY-MM-DD hh:mm:ss) UTC,Instrument flags,absolute air pressure of the measurement (hPa),sample flow rate (lpm),inlet stack bypass flow (lpm),air temperature of the measurement (°C),ambient temperature measured by the external sensor (°C),aerosol sample conditioner tube jacket temperature (°C),OPC LED temperature (°C),internal box temperature (°C),relative humidity of the measurement (%),span deviation,mass concentration of particles derived from Lorenz-Mie calculation of OPC scattering (μg/m³),mass concentration of particles derived from Lorenz-Mie calculation of OPC scattering (μg/m³),mass concentration of particles derived from Lorenz-Mie calculation of OPC scattering (μg/m³)
DateTimeUTC,F1_M11,P_M11,Q1_M11,Q2_M11,T1_M11,T2_M11,T3_M11,T4_M11,T5_M11,U1_M11,ZSPAN_M11,X2_M11,X0_M11,X1_M11
2023-08-26 04:00:00,SystemResetWarning,0840.6,5.00,000.00,030.0,027.7,000.0,038.5,030.8,34.8,0000.0,0001.86,0002.72,0001.51
2023-08-26 04:01:00,SystemResetWarning,0840.6,4.99,000.00,030.0,027.7,000.0,038.5,030.8,34.8,0000.0,0001.89,0002.78,0001.55
2023-08-26 04:02:00,SystemResetWarning,0840.6,5.00,000.00,030.0,027.7,000.0,038.5,030.8,35.0,0000.0,0001.94,0002.88,0001.58
2023-08-26 04:03:00,SystemResetWarning,0840.6,5.02,000.00,030.1,027.7,000.0,038.5,030.9,34.8,0000.0,0001.96,0002.93,0001.59
2023-08-26 04:04:00,SystemResetWarning,0840.6,4.98,000.00,030.2,026.9,000.0,038.4,030.8,34.2,0000.0,0001.96,0002.91,0001.59
2023-08-26 04:05:00,SystemResetWarning,0840.6,5.03,000.00,030.2,025.2,000.0,038.2,030.6,34.0,0000.0,0001.97,0002.93,0001.60
2023-08-26 04:06:00,SystemResetWarning,0840.6,4.99,000.00,030.2,024.6,000.0,038.1,030.4,34.3,0000.0,0001.95,0002.89,0001.60
2023-08-26 04:07:00,SystemResetWarning,0840.6,4.99,000.00,030.0,024.8,000.0,038.2,030.1,34.5,0000.0,0001.95,0002.95,0001.61
2023-08-26 04:08:00,SystemResetWarning,0840.6,5.00,000.00,029.9,025.1,000.0,038.2,030.1,34.6,0000.0,0001.99,0003.05,0001.63
2023-08-26 04:09:00,SystemResetWarning,0840.5,5.01,000.00,029.8,025.5,000.0,038.2,030.2,34.4,0000.0,0001.99,0003.04,0001.64
2023-08-26 04:10:00,SystemResetWarning,0840.5,5.00,000.00,029.8,025.8,000.0,038.2,030.2,34.1,0000.0,0002.02,0003.07,0001.66
2023-08-26 04:11:00,SystemResetWarning,0840.5,4.99,000.00,029.7,026.1,000.0,038.2,030.3,34.0,0000.0,0002.09,0003.08,0001.70
2023-08-26 04:12:00,SystemResetWarning,0840.5,5.00,000.00,029.7,026.4,000.0,038.2,030.3,33.8,0000.0,0002.19,0003.23,0001.75
2023-08-26 04:13:00,SystemResetWarning,0840.5,5.00,000.00,029.7,026.6,000.0,038.2,030.3,34.0,0000.0,0002.25,0003.65,0001.79
2023-08-26 04:14:00,SystemResetWarning,0840.5,5.00,000.00,029.6,026.8,000.0,038.2,030.4,34.1,0000.0,0002.29,0003.68,0001.84
2023-08-26 04:15:00,SystemResetWarning,0840.5,4.99,000.00,029.6,026.9,000.0,038.2,030.4,34.1,0000.0,0002.37,0003.82,0001.88
2023-08-26 04:16:00,SystemResetWarning,0840.5,4.99,000.00,029.6,027.1,000.0,038.2,030.4,34.2,0000.0,0002.45,0003.99,0001.92
2023-08-26 04:17:00,SystemResetWarning,0840.5,4.99,000.00,029.6,027.2,000.0,038.2,030.4,34.4,0000.0,0002.55,0004.39,0001.96
2023-08-26 04:18:00,SystemResetWarning,0840.5,5.01,000.00,029.6,027.2,000.0,038.2,030.5,34.2,0000.0,0002.60,0004.36,0001.99
2023-08-26 04:19:00,SystemResetWarning,0840.5,5.01,000.00,029.6,027.3,000.0,038.1,030.5,34.2,0000.0,0002.65,0004.36,0002.03
2023-08-26 04:20:00,SystemResetWarning,0840.5,5.00,000.00,029.6,027.4,000.0,038.1,030.5,34.1,0000.0,0002.72,0004.45,0002.07
2023-08-26 04:21:00,SystemResetWarning,0840.5,4.99,000.00,029.6,027.4,000.0,038.1,030.5,34.2,0000.0,0002.78,0004.67,0002.11
2023-08-26 04:22:00,SystemResetWarning,0840.5,5.00,000.00,029.6,027.4,000.0,038.1,030.5,34.2,0000.0,0002.80,0004.73,0002.12
2023-08-26 04:23:00,SystemResetWarning,0840.5,5.00,000.00,029.6,027.5,000.0,038.1,030.5,34.2,0000.0,0002.81,0004.77,0002.14
2023-08-26 04:24:00,SystemResetWarning,0840.5,5.00,000.00,029.6,027.5,000.0,038.1,030.6,34.2,0000.0,0002.80,0004.47,0002.15
2023-08-26 04:25:00,SystemResetWarning,0840.5,5.00,000.00,029.5,027.6,000.0,038.1,030.6,34.2,0000.0,0002.81,0004.36,0002.16
2023-08-26 04:26:00,SystemResetWarning,0840.5,5.00,000.00,029.5,027.6,000.0,038.1,030.6,34.4,0000.0,0002.81,0004.48,0002.17
2023-08-26 04:27:00,SystemResetWarning,0840.4,5.00,000.00,029.5,027.6,000.0,038.1,030.6,34.3,0000.0,0002.78,0004.34,0002.18
2023-08-26 04:28:00,SystemResetWarning,0840.4,5.01,000.00,029.5,027.6,000.0,038.1,030.6,34.3,0000.0,0002.77,0004.12,0002.21
2023-08-26 04:29:00,SystemResetWarning,0840.4,5.00,000.00,029.5,027.6,000.0,038.1,030.6,34.1,0000.0,0002.78,0004.09,0002.23
2023-08-26 04:30:00,SystemResetWarning,0840.3,5.00,000.00,029.5,027.7,000.0,038.1,030.7,34.2,0000.0,0002.79,0004.12,0002.25
2023-08-26 04:31:00,SystemResetWarning,0840.4,5.00,000.00,029.5,027.6,000.0,038.1,030.7,34.2,0000.0,0002.77,0004.17,0002.25
2023-08-26 04:32:00,SystemResetWarning,0840.3,4.98,000.00,029.5,026.3,000.0,038.0,030.5,34.1,0000.0,0002.78,0004.16,0002.26
2023-08-26 04:33:00,SystemResetWarning,0840.2,5.01,000.00,029.4,024.9,000.0,037.8,030.3,34.3,0000.0,0002.78,0004.07,0002.28
2023-08-26 04:34:00,SystemResetWarning,0840.2,5.01,000.00,029.3,024.5,000.0,037.7,030.0,34.5,0000.0,0002.80,0004.21,0002.28
2023-08-26 04:35:00,SystemResetWarning,0840.2,4.99,000.00,029.1,024.8,000.0,037.7,029.8,34.9,0000.0,0002.82,0004.39,0002.29
2023-08-26 04:36:00,SystemResetWarning,0840.2,5.01,000.00,029.1,025.1,000.0,037.8,029.9,35.0,0000.0,0002.86,0004.52,0002.31
2023-08-26 04:37:00,SystemResetWarning,0840.2,5.00,000.00,029.3,025.5,000.0,037.7,030.1,34.6,0000.0,0002.96,0004.68,0002.33
2023-08-26 04:38:00,SystemResetWarning,0840.2,4.99,000.00,029.4,025.9,000.0,037.7,030.2,34.4,0000.0,0003.03,0004.80,0002.36
2023-08-26 04:39:00,SystemResetWarning,0840.3,5.02,000.00,029.5,026.2,000.0,037.7,030.2,34.1,0000.0,0003.08,0005.08,0002.38
2023-08-26 04:40:00,SystemResetWarning,0840.3,4.99,000.00,029.5,026.4,000.0,037.8,030.2,34.2,0000.0,0003.11,0005.10,0002.41
2023-08-26 04:41:00,SystemResetWarning,0840.3,4.99,000.00,029.5,026.6,000.0,037.8,030.3,34.2,0000.0,0003.13,0005.20,0002.43
2023-08-26 04:42:00,SystemResetWarning,0840.3,5.01,000.00,029.6,026.8,000.0,037.8,030.3,34.2,0000.0,0003.15,0005.14,0002.47
2023-08-26 04:43:00,SystemResetWarning,0840.4,5.01,000.00,029.6,026.9,000.0,037.9,030.3,34.1,0000.0,0003.16,0005.07,0002.52
2023-08-26 04:44:00,SystemResetWarning,0840.4,4.99,000.00,029.6,027.1,000.0,037.9,030.4,34.0,0000.0,0003.20,0006.01,0002.57
2023-08-26 04:45:00,SystemResetWarning,0840.3,4.99,000.00,029.6,027.1,000.0,037.9,030.4,34.0,0000.0,0003.23,0006.29,0002.63
2023-08-26 04:46:00,SystemResetWarning,0840.3,5.00,000.00,029.6,027.2,000.0,037.9,030.5,33.9,0000.0,0003.26,0006.15,0002.70
2023-08-26 04:47:00,SystemResetWarning,0840.3,5.01,000.00,029.6,027.3,000.0,037.9,030.5,34.0,0000.0,0003.31,0006.30,0002.77
2023-08-26 04:48:00,SystemResetWarning,0840.3,5.01,000.00,029.6,027.4,000.0,038.0,030.5,34.2,0000.0,0003.33,0006.49,0002.83
2023-08-26 04:49:00,SystemResetWarning,0840.3,4.99,000.00,029.6,027.4,000.0,038.0,030.5,34.1,0000.0,0003.35,0006.42,0002.88
2023-08-26 04:50:00,SystemResetWarning,0840.2,4.99,000.00,029.6,027.5,000.0,038.0,030.5,34.1,0000.0,0003.39,0006.38,0002.94
2023-08-26 04:51:00,SystemResetWarning,0840.2,5.00,000.00,029.6,027.5,000.0,038.0,030.6,33.9,0000.0,0003.43,0006.65,0002.98
2023-08-26 04:52:00,SystemResetWarning,0840.2,5.01,000.00,029.6,027.5,000.0,038.0,030.6,33.7,0000.0,0003.45,0007.69,0003.01
2023-08-26 04:53:00,SystemResetWarning,0840.2,5.00,000.00,029.6,027.6,000.0,038.0,030.6,33.7,0000.0,0003.47,0007.70,0003.04
2023-08-26 04:54:00,SystemResetWarning,0840.1,5.01,000.00,029.6,027.6,000.0,038.0,030.6,33.8,0000.0,0003.49,0007.74,0003.06
2023-08-26 04:55:00,SystemResetWarning,0840.2,5.00,000.00,029.6,027.6,000.0,038.0,030.6,33.7,0000.0,0003.50,0007.51,0003.08
2023-08-26 04:56:00,SystemResetWarning,0840.2,5.00,000.00,029.6,027.6,000.0,038.0,030.6,33.5,0000.0,0003.52,0007.38,0003.09
2023-08-26 04:57:00,SystemResetWarning,0840.2,5.00,000.00,029.6,027.7,000.0,038.1,030.7,33.7,0000.0,0003.53,0007.43,0003.08
2023-08-26 04:58:00,SystemResetWarning,0840.2,4.99,000.00,029.6,027.7,000.0,038.1,030.7,33.7,0000.0,0003.53,0007.43,0003.08
2023-08-26 04:59:00,SystemResetWarning,0840.2,4.98,000.00,029.6,026.7,000.0,038.0,030.6,33.5,0000.0,0003.53,0007.28,0003.09
